Tracking 31033 objects as of 15-Jul-2025
HD Live streaming from Space Station
objects crossing your sky now

IRIDIUM 117

Track IRIDIUM 117 now!
10-day predictions
IRIDIUM 117 is classified as:


NORAD ID: 42808
Int'l Code: 2017-039F
Perigee: 783.2 km
Apogee: 786.4 km
Inclination: 86.4 °
Period: 100.4 minutes
Semi major axis: 7155 km
RCS: Unknown
Launch date: June 25, 2017
Source: United States (US)
Launch site: AIR FORCE WESTERN TEST RANGE (AFWTR)
Your satellite tracking list
Your tracking list is empty




NASA's NSSDC Master Catalog

Two Line Element Set (TLE):
1 42808U 17039F   25195.37387687  .00000050  00000-0  10911-4 0  9994
2 42808  86.3998 134.8269 0002274  77.7833 282.3618 14.34217871421555
Source of the keplerian elements: AFSPC